TimeCDT,TemperatureF,Dew PointF,Humidity,Sea Level PressureIn,VisibilityMPH,Wind Direction,Wind SpeedMPH,Gust SpeedMPH,PrecipitationIn,Events,Conditions,WindDirDegrees,DateUTC
12:53 AM,63.0,53.1,70,30.08,10.0,SSE,4.6,-,N/A,,Clear,160,2013-05-14 05:53:00
1:53 AM,64.0,53.1,67,30.06,10.0,SSW,9.2,-,N/A,,Clear,210,2013-05-14 06:53:00
2:53 AM,64.0,54.0,70,30.05,10.0,SW,9.2,-,N/A,,Clear,220,2013-05-14 07:53:00
3:53 AM,63.0,53.1,70,30.04,10.0,SW,10.4,-,N/A,,Clear,220,2013-05-14 08:53:00
4:53 AM,62.1,53.1,72,30.04,10.0,SW,8.1,-,N/A,,Clear,230,2013-05-14 09:53:00
5:53 AM,62.1,53.1,72,30.05,10.0,SW,8.1,-,N/A,,Clear,230,2013-05-14 10:53:00
6:53 AM,63.0,53.1,70,30.06,10.0,SW,11.5,-,N/A,,Clear,220,2013-05-14 11:53:00
7:53 AM,64.9,54.0,68,30.07,10.0,SW,10.4,-,N/A,,Clear,220,2013-05-14 12:53:00
8:53 AM,68.0,55.0,63,30.08,10.0,SW,13.8,-,N/A,,Clear,220,2013-05-14 13:53:00
9:53 AM,72.0,55.9,57,30.07,10.0,SSW,16.1,-,N/A,,Clear,210,2013-05-14 14:53:00
10:53 AM,75.0,57.0,53,30.07,10.0,SW,15.0,-,N/A,,Clear,220,2013-05-14 15:53:00
11:53 AM,79.0,57.0,47,30.06,10.0,WSW,16.1,-,N/A,,Clear,240,2013-05-14 16:53:00
12:53 PM,81.0,60.1,49,30.04,10.0,SW,15.0,23.0,N/A,,Clear,230,2013-05-14 17:53:00
1:53 PM,82.9,61.0,47,30.02,10.0,SSW,13.8,21.9,N/A,,Clear,210,2013-05-14 18:53:00
2:53 PM,84.9,61.0,44,30.01,10.0,SW,17.3,23.0,N/A,,Clear,220,2013-05-14 19:53:00
3:53 PM,84.9,61.0,44,29.99,10.0,SW,18.4,25.3,N/A,,Clear,220,2013-05-14 20:53:00
4:53 PM,84.9,61.0,44,29.98,10.0,SSW,19.6,25.3,N/A,,Clear,210,2013-05-14 21:53:00
5:53 PM,84.0,60.1,44,29.97,10.0,SW,18.4,26.5,N/A,,Clear,220,2013-05-14 22:53:00
6:53 PM,82.0,61.0,49,29.96,10.0,SW,16.1,23.0,N/A,,Clear,220,2013-05-14 23:53:00
7:53 PM,80.1,60.1,50,29.97,10.0,SW,13.8,-,N/A,,Clear,220,2013-05-15 00:53:00
8:53 PM,77.0,57.9,52,29.98,10.0,SW,11.5,-,N/A,,Clear,230,2013-05-15 01:53:00
9:53 PM,75.9,57.0,52,30.00,10.0,WSW,12.7,-,N/A,,Clear,240,2013-05-15 02:53:00
10:53 PM,73.9,57.0,55,30.01,10.0,SW,10.4,-,N/A,,Clear,220,2013-05-15 03:53:00
11:53 PM,73.0,57.0,57,30.01,10.0,SW,11.5,-,N/A,,Clear,220,2013-05-15 04:53:00